{"data":{"norad_id":37168,"epoch":"2026-09-20T04:45:44.108352Z","epoch_age_seconds":51847,"freshness":"FRESH","line1":"1 37168U 10048A   26263.19842718  .00002357  00000+0  11343-3 0  9998","line2":"2 37168  97.7171 150.4710 0078370 234.8924 221.9584 15.17173317866876","mean_motion":15.17173317,"eccentricity":0.007837,"inclination_deg":97.7171,"raan_deg":150.471,"arg_perigee_deg":234.8924,"mean_anomaly_deg":221.9584,"bstar":0.00011343,"rev_number":86687,"period_min":94.913348650726,"perigee_km":460.3717112589,"apogee_km":568.40515489696,"semimajor_km":6892.5254330779,"source":"CELESTRAK","updated_at":"2026-09-20T09:00:13.792069Z"}}